Effective Sunday, March 17, 2024, the National Weather Service National Data Buoy Center will discontinue its Dial-A-Buoy Interactive Voice Response system. For more information, see Service Change Notice 24-06 (PDF).

Station LAMV3 - 9751381 - Lameshur Bay, St John, VI Image indicating link to RSS feed of recent meteorological observations for station LAMV3


Conditions at LAMV3 as of
(11:54 am AST)
1554 GMT on 03/01/2024:
     

Click on the graph icon in the table below to see a time series plot of the last five days of that observation.

5-day plot - Atmospheric Pressure Atmospheric Pressure (PRES):30.09 in
5-day plot - Air Temperature Air Temperature (ATMP): 81.0 °F
5-day plot - Water Temperature Water Temperature (WTMP): 81.9 °F
NOS Water Level Observation Network Water Level
Previous observations
TIME
(AST)
5-day plot - Wind Direction
WDIR
 
5-day plot - Wind Speed
WSPD
kts
5-day plot - Wind Gust
GST
kts
5-day plot - Wave Height
WVHT
ft
5-day plot - Dominant Wave Period
DPD
sec
5-day plot - Average Wave Period
APD
sec
5-day plot - Mean Wave Direction
MWD
 
5-day plot - Atmospheric Pressure
PRES
in
5-day plot - Pressure Tendency
PTDY
in
5-day plot - Air Temperature
ATMP
°F
5-day plot - Water Temperature
WTMP
°F
5-day plot - Dew Point
DEWP
°F
5-day plot - Salinity
SAL
psu
5-day plot - Visibility
VIS
nmi
5-day plot - Tide (above MLLW)
TIDE
ft
2024-03-01 11:48 am-------30.09- 80.6 81.9----
2024-03-01 11:42 am-------30.09- 81.0 81.7----
2024-03-01 11:36 am-------30.09- 81.0 81.5----
2024-03-01 11:30 am-------30.09- 80.6 81.5----
2024-03-01 11:24 am-------30.09- 80.1 81.5----
2024-03-01 11:18 am-------30.09- 81.5 81.3----
2024-03-01 11:12 am-------30.09- 80.6 81.3----
2024-03-01 11:06 am-------30.09- 81.0 81.1----
2024-03-01 11:00 am-------30.10+0.04 80.2 81.1----
2024-03-01 10:54 am-------30.10- 81.0 81.1----
2024-03-01 10:48 am-------30.10- 79.9 81.0----
2024-03-01 10:42 am-------30.10- 80.4 81.0----
2024-03-01 10:36 am-------30.10- 80.1 81.0----
2024-03-01 10:30 am-------30.11- 78.8 80.8----
2024-03-01 10:24 am-------30.11- 78.4 80.8----
2024-03-01 10:18 am-------30.11- 77.5 80.8----
2024-03-01 10:12 am-------30.11- 76.6 80.8----
2024-03-01 10:06 am-------30.10- 76.5 80.8----
2024-03-01 10:00 am-------30.10+0.06 75.9 80.8----
2024-03-01 09:54 am-------30.10- 75.9 80.8----
2024-03-01 09:48 am-------30.10- 75.7 80.6----
2024-03-01 09:42 am-------30.10- 75.7 80.6----
2024-03-01 09:36 am-------30.10- 75.4 80.6----
2024-03-01 09:30 am-------30.10- 75.9 80.6----
2024-03-01 09:18 am-------30.09- 76.6 80.6----
2024-03-01 09:12 am-------30.09- 76.8 80.6----
2024-03-01 09:06 am-------30.09- 77.5 80.6----
2024-03-01 09:00 am-------30.08+0.06 77.0 80.6----
2024-03-01 08:54 am-------30.09- 77.0 80.6----
2024-03-01 08:48 am-------30.08- 77.0 80.6----
2024-03-01 08:42 am-------30.08- 77.4 80.6----
2024-03-01 08:36 am-------30.07- 78.1 80.6----
2024-03-01 08:30 am-------30.07- 78.6 80.6----
2024-03-01 08:24 am-------30.07- 77.2 80.6----
2024-03-01 08:18 am-------30.07- 77.2 80.6----
2024-03-01 08:12 am-------30.06- 77.0 80.6----
2024-03-01 08:00 am-------30.06+0.05 79.3 80.6----
2024-03-01 07:54 am-------30.06- 78.8 80.6----
2024-03-01 07:42 am-------30.06- 77.9 80.6----
2024-03-01 07:36 am-------30.06- 78.8 80.6----
2024-03-01 07:30 am-------30.05- 78.3 80.6----
2024-03-01 07:24 am-------30.05- 77.9 80.6----
2024-03-01 07:18 am-------30.05- 77.5 80.6----
2024-03-01 07:12 am-------30.05- 76.6 80.6----
2024-03-01 07:06 am-------30.05- 76.6 80.6----
2024-03-01 07:00 am-------30.05+0.04 76.3 80.6----
2024-03-01 06:54 am-------30.04- 76.3 80.6----
2024-03-01 06:48 am-------30.04- 76.1 80.6----
2024-03-01 06:42 am-------30.04- 76.3 80.6----
2024-03-01 06:36 am-------30.04- 76.3 80.6----
2024-03-01 06:30 am-------30.03- 75.9 80.6----
2024-03-01 06:24 am-------30.03- 76.1 80.6----
2024-03-01 06:18 am-------30.03- 75.9 80.6----
2024-03-01 06:12 am-------30.03- 76.1 80.6----
2024-03-01 06:06 am-------30.03- 76.5 80.6----
2024-03-01 06:00 am-------30.03+0.02 76.3 80.6----
2024-03-01 05:54 am-------30.02- 76.5 80.8----
2024-03-01 05:42 am-------30.02- 76.3 80.8----
2024-03-01 05:36 am-------30.02- 76.6 80.8----
2024-03-01 05:30 am-------30.01- 75.9 80.8----
2024-03-01 05:24 am-------30.01- 76.1 80.8----
2024-03-01 05:18 am-------30.01- 76.6 80.8----
2024-03-01 05:12 am-------30.01- 76.5 80.8----
2024-03-01 05:06 am-------30.01- 76.5 80.8----
2024-03-01 05:00 am-------30.01-0.01 76.5 80.8----
2024-03-01 04:54 am-------30.01- 76.5 80.8----
2024-03-01 04:42 am-------30.01- 76.3 80.8----
2024-03-01 04:36 am-------30.01- 76.3 80.8----
2024-03-01 04:30 am-------30.01- 76.6 80.8----
2024-03-01 04:24 am-------30.01- 76.5 80.8----
2024-03-01 04:12 am-------30.01- 76.6 80.8----
2024-03-01 04:00 am-------30.00-0.04 76.5 80.8----
2024-03-01 03:54 am-------30.00- 76.1 80.8----
2024-03-01 03:42 am-------30.00- 75.9 80.8----
2024-03-01 03:30 am-------30.00- 75.7 81.0----
2024-03-01 03:24 am-------30.00- 76.1 81.0----
2024-03-01 03:12 am-------30.00- 76.5 81.0----
2024-03-01 03:00 am-------30.01-0.05 76.8 81.0----
2024-03-01 02:54 am-------30.01- 76.5 81.0----
2024-03-01 02:48 am-------30.01- 76.8 81.0----
2024-03-01 02:42 am-------30.01- 77.2 81.0----
2024-03-01 02:36 am-------30.01- 76.5 81.0----
2024-03-01 02:30 am-------30.01- 76.1 81.0----
2024-03-01 02:24 am-------30.01- 76.6 81.0----
2024-03-01 02:18 am-------30.01- 75.7 81.0----
2024-03-01 02:12 am-------30.02- 75.7 81.0----
2024-03-01 02:06 am-------30.02- 76.6 81.0----
2024-03-01 02:00 am-------30.02-0.03 76.3 81.1----
2024-03-01 01:54 am-------30.02- 75.6 81.1----
2024-03-01 01:48 am-------30.02-- 81.1----
2024-03-01 01:42 am-------30.03-- 81.1----
2024-03-01 01:36 am-------30.03- 77.0 81.1----
2024-03-01 01:30 am-------30.03- 76.6 81.1----
2024-03-01 01:18 am-------30.03- 76.6 81.1----
2024-03-01 01:12 am-------30.03- 76.8 81.1----
2024-03-01 01:06 am-------30.04- 77.4 81.1----
2024-03-01 01:00 am-------30.04-0.02 77.0 81.1----
2024-03-01 12:48 am-------30.05- 77.2 81.1----
2024-03-01 12:42 am-------30.05- 77.2 81.1----
2024-03-01 12:36 am-------30.05- 77.0 81.1----
2024-03-01 12:30 am-------30.05- 77.0 81.1----
2024-03-01 12:24 am-------30.05- 76.6 81.1----
2024-03-01 12:18 am-------30.05- 76.5 81.1----
2024-03-01 12:12 am-------30.05- 76.1 81.1----
2024-03-01 12:06 am-------30.05- 75.9 81.1----
2024-03-01 12:00 am-------30.06+0.00 76.1 81.3----
2024-02-29 11:54 pm-------30.06- 76.5 81.3----
2024-02-29 11:48 pm-------30.06- 77.0 81.3----
2024-02-29 11:42 pm-------30.06- 76.8 81.3----
2024-02-29 11:36 pm-------30.06- 76.1 81.3----
2024-02-29 11:30 pm-------30.06- 75.9 81.3----
2024-02-29 11:24 pm-------30.05- 76.3 81.3----
2024-02-29 11:18 pm-------30.06- 76.1 81.3----
2024-02-29 11:12 pm-------30.06- 77.0 81.3----
2024-02-29 11:06 pm-------30.06- 76.8 81.3----
2024-02-29 11:00 pm-------30.05+0.02 76.8 81.3----
2024-02-29 10:54 pm-------30.05- 76.6 81.3----
2024-02-29 10:48 pm-------30.05- 76.3 81.3----
2024-02-29 10:42 pm-------30.06- 75.4 81.3----
2024-02-29 10:36 pm-------30.05- 75.6 81.3----
2024-02-29 10:30 pm-------30.06- 75.4 81.3----
2024-02-29 10:24 pm-------30.06- 76.1 81.3----
2024-02-29 10:12 pm-------30.06- 76.3 81.5----
2024-02-29 10:06 pm-------30.06- 76.8 81.5----
2024-02-29 10:00 pm-------30.06+0.06 76.6 81.5----
2024-02-29 09:54 pm-------30.06- 76.6 81.5----
2024-02-29 09:48 pm-------30.06- 77.0 81.5----
2024-02-29 09:42 pm-------30.06- 76.8 81.5----
2024-02-29 09:36 pm-------30.06- 77.2 81.5----
2024-02-29 09:30 pm-------30.06- 77.4 81.5----
2024-02-29 09:18 pm-------30.06- 78.1 81.5----
2024-02-29 09:12 pm-------30.05- 78.3 81.7----
2024-02-29 09:06 pm-------30.05- 78.1 81.7----
2024-02-29 09:00 pm-------30.05+0.05 78.1 81.7----
2024-02-29 08:54 pm-------30.05- 78.1 81.7----
2024-02-29 08:48 pm-------30.05- 78.1 81.7----
2024-02-29 08:42 pm-------30.05- 78.1 81.9----
2024-02-29 08:36 pm-------30.04- 78.3 81.9----
2024-02-29 08:30 pm-------30.04- 77.9 81.9----
2024-02-29 08:24 pm-------30.04- 77.9 81.9----
2024-02-29 08:18 pm-------30.04- 77.4 81.9----
2024-02-29 08:12 pm-------30.04- 77.4 81.9----
2024-02-29 08:06 pm-------30.03- 77.5 81.9----
2024-02-29 08:00 pm-------30.03+0.04 77.5 81.9----
2024-02-29 07:54 pm-------30.03- 77.5 81.9----
2024-02-29 07:48 pm-------30.03- 77.9 82.0----
2024-02-29 07:42 pm-------30.03- 77.7 82.0----
2024-02-29 07:36 pm-------30.02- 77.7 82.0----
2024-02-29 06:42 pm-------30.00- 78.1 82.4----
2024-02-29 06:36 pm-------30.00- 78.4 82.4----
2024-02-29 06:30 pm-------30.00- 78.4 82.4----
2024-02-29 06:24 pm-------30.00- 78.4 82.4----
2024-02-29 06:18 pm-------30.00- 78.6 82.6----
2024-02-29 06:12 pm-------30.00- 78.8 82.6----
2024-02-29 06:06 pm-------30.00- 78.8 82.6----
2024-02-29 06:00 pm-------30.00+0.00 79.0 82.6----
2024-02-29 05:48 pm-------30.00- 79.5 82.6----
2024-02-29 05:42 pm-------30.00- 79.7 82.6----
2024-02-29 05:36 pm-------30.00- 79.7 82.6----
2024-02-29 05:30 pm-------30.00- 80.1 82.6----
2024-02-29 05:24 pm-------30.00- 80.1 82.6----
2024-02-29 05:18 pm-------30.00- 80.2 82.6----
2024-02-29 05:12 pm-------30.00- 80.4 82.6----
2024-02-29 05:06 pm-------30.00- 80.2 82.6----
2024-02-29 05:00 pm-------29.99-0.03 80.4 82.6----
2024-02-29 04:54 pm-------29.99- 80.6 82.6----
2024-02-29 04:48 pm-------29.99- 80.8 82.6----
2024-02-29 04:42 pm-------29.99- 81.0 82.8----
2024-02-29 04:36 pm-------29.99- 80.8 82.8----
2024-02-29 04:30 pm-------29.99- 80.8 82.8----
2024-02-29 04:24 pm-------29.99- 80.8 82.8----
2024-02-29 04:18 pm-------29.99- 81.5 82.8----
2024-02-29 04:12 pm-------29.99- 81.9 82.8----
2024-02-29 04:06 pm-------29.99- 81.9 82.9----
2024-02-29 04:00 pm-------29.99-0.04 81.1 82.9----
2024-02-29 03:54 pm-------29.99- 81.1 82.9----
2024-02-29 03:48 pm-------29.99- 81.1 82.9----
2024-02-29 03:42 pm-------29.99- 81.5 82.9----
2024-02-29 03:36 pm-------29.99- 81.3 82.9----
2024-02-29 03:30 pm-------29.99- 81.0 82.9----
2024-02-29 03:24 pm-------29.99- 81.7 82.8----
2024-02-29 03:18 pm-------30.00- 81.1 82.8----
2024-02-29 03:12 pm-------30.00- 81.0 82.9----
2024-02-29 03:06 pm-------30.00- 81.3 82.9----
2024-02-29 03:00 pm-------30.00-0.06 81.3 82.9----
2024-02-29 02:54 pm-------30.00- 81.3 82.9----
2024-02-29 02:48 pm-------30.01- 81.7 82.9----
2024-02-29 02:42 pm-------30.01- 81.9 82.8----
2024-02-29 02:36 pm-------30.01- 82.0 82.8----
2024-02-29 02:30 pm-------30.01- 82.4 82.9----
2024-02-29 02:24 pm-------30.01- 82.2 82.9----
2024-02-29 02:18 pm-------30.01- 82.9 82.9----
2024-02-29 02:12 pm-------30.01- 82.2 82.9----
2024-02-29 02:06 pm-------30.02- 81.9 82.9----
2024-02-29 02:00 pm-------30.02-0.05 82.0 82.9----
2024-02-29 01:54 pm-------30.02- 83.1 82.9----
2024-02-29 01:48 pm-------30.02- 83.3 82.8----
2024-02-29 01:42 pm-------30.03- 83.5 82.8----
2024-02-29 01:36 pm-------30.03- 83.1 82.8----
2024-02-29 01:30 pm-------30.03- 83.3 82.8----
2024-02-29 01:24 pm-------30.03- 83.5 82.8----
2024-02-29 01:18 pm-------30.03- 82.9 82.8----
2024-02-29 01:12 pm-------30.04- 82.6 82.8----
2024-02-29 01:06 pm-------30.04- 83.7 82.6----
2024-02-29 01:00 pm-------30.04-0.03 82.9 82.6----
2024-02-29 12:54 pm-------30.04- 83.7 82.6----
2024-02-29 12:48 pm-------30.04- 83.7 82.6----
2024-02-29 12:42 pm-------30.05- 82.8 82.6----
2024-02-29 12:36 pm-------30.05- 82.8 82.6----
2024-02-29 12:30 pm-------30.05- 82.9 82.6----
2024-02-29 12:24 pm-------30.05- 82.6 82.4----
2024-02-29 12:18 pm-------30.05- 82.8 82.4----
2024-02-29 12:12 pm-------30.06- 82.8 82.4----
2024-02-29 12:06 pm-------30.06- 82.6 82.4----
2024-02-29 12:00 pm-------30.06+0.00 82.8 82.4----
2024-02-29 11:54 am-------30.06- 83.1 82.2----